| time (UTC) | temp F | wind direction | speed MPH | gust MPH | rain 1hr in | rain 24hr in | rain mn in | humidity % | barometer mb |
| 20260506135138 | 57 | 225 | 0.0 | 0.0 | 0.00 | 0.00 | 0.00 | 83 | 1024.9 |
| 20260506134738 | 57 | 225 | 0.0 | 0.0 | 0.00 | 0.00 | 0.00 | 83 | 1024.9 |
| 20260506134338 | 57 | 225 | 0.0 | 0.0 | 0.00 | 0.00 | 0.00 | 82 | 1024.8 |
| 20260506133938 | 57 | 225 | 0.0 | 0.0 | 0.00 | 0.00 | 0.00 | 83 | 1024.7 |
| 20260506133537 | 57 | 225 | 0.0 | 0.0 | 0.00 | 0.00 | 0.00 | 83 | 1024.7 |
| 20260506133137 | 57 | 135 | 0.0 | 0.0 | 0.00 | 0.00 | 0.00 | 83 | 1024.8 |
| 20260506132737 | 57 | 135 | 0.0 | 0.0 | 0.00 | 0.00 | 0.00 | 83 | 1024.8 |
| 20260506132337 | 57 | 135 | 0.0 | 0.0 | 0.00 | 0.00 | 0.00 | 82 | 1024.6 |
| 20260506131937 | 57 | 135 | 0.0 | 0.0 | 0.00 | 0.00 | 0.00 | 82 | 1024.5 |
| 20260506131537 | 57 | 45 | 0.0 | 0.0 | 0.00 | 0.00 | 0.00 | 82 | 1024.6 |
| 20260506131137 | 57 | 45 | 0.0 | 0.0 | 0.00 | 0.00 | 0.00 | 82 | 1024.6 |
| 20260506130736 | 56 | 45 | 0.0 | 0.0 | 0.00 | 0.00 | 0.00 | 82 | 1024.4 |
| 20260506130336 | 56 | 45 | 0.0 | 0.0 | 0.00 | 0.00 | 0.00 | 82 | 1024.5 |
| 20260506125936 | 56 | 45 | 0.0 | 0.0 | 0.00 | 0.00 | 0.00 | 82 | 1024.4 |
| 20260506125536 | 56 | 0 | 0.0 | 0.0 | 0.00 | 0.00 | 0.00 | 82 | 1024.5 |
| 20260506125136 | 56 | 45 | 0.0 | 0.0 | 0.00 | 0.00 | 0.00 | 81 | 1024.4 |
| 20260506124737 | 56 | 45 | 0.0 | 0.0 | 0.00 | 0.00 | 0.00 | 81 | 1024.5 |
| 20260506124336 | 56 | 45 | 0.0 | 0.0 | 0.00 | 0.00 | 0.00 | 81 | 1024.4 |
| 20260506123935 | 56 | 45 | 0.0 | 0.0 | 0.00 | 0.00 | 0.00 | 81 | 1024.4 |
| 20260506123536 | 56 | 45 | 0.0 | 0.0 | 0.00 | 0.00 | 0.00 | 82 | 1024.4 |
| 20260506123135 | 56 | 45 | 0.0 | 0.0 | 0.00 | 0.00 | 0.00 | 81 | 1024.5 |
| 20260506122735 | 56 | 45 | 0.0 | 0.0 | 0.00 | 0.00 | 0.00 | 81 | 1024.4 |
| 20260506122335 | 56 | 45 | 0.0 | 0.0 | 0.00 | 0.00 | 0.00 | 81 | 1024.4 |
| 20260506121935 | 56 | 45 | 0.0 | 0.0 | 0.00 | 0.00 | 0.00 | 81 | 1024.4 |
| 20260506121535 | 56 | 45 | 0.0 | 0.0 | 0.00 | 0.00 | 0.00 | 81 | 1024.4 |
| 20260506121134 | 56 | 45 | 0.0 | 0.0 | 0.00 | 0.00 | 0.00 | 81 | 1024.4 |
| 20260506120734 | 56 | 45 | 0.0 | 0.0 | 0.00 | 0.00 | 0.00 | 81 | 1024.3 |
| 20260506120334 | 56 | 45 | 0.0 | 0.0 | 0.00 | 0.00 | 0.00 | 81 | 1024.3 |
| 20260506115934 | 56 | 90 | 0.0 | 0.0 | 0.00 | 0.00 | 0.00 | 81 | 1024.4 |
| 20260506115534 | 56 | 45 | 0.0 | 0.0 | 0.00 | 0.00 | 0.00 | 81 | 1024.3 |
| 20260506115134 | 56 | 45 | 0.0 | 0.0 | 0.00 | 0.00 | 0.00 | 81 | 1024.2 |
| 20260506114734 | 56 | 45 | 0.0 | 0.0 | 0.00 | 0.00 | 0.00 | 81 | 1024.3 |
| 20260506114333 | 56 | 45 | 0.0 | 0.0 | 0.00 | 0.00 | 0.00 | 81 | 1024.2 |
| 20260506113933 | 56 | 58 | 0.0 | 0.0 | 0.00 | 0.00 | 0.00 | 81 | 1024.2 |
| 20260506113533 | 56 | 45 | 0.0 | 0.0 | 0.00 | 0.00 | 0.00 | 81 | 1024.2 |
| 20260506113133 | 56 | 45 | 0.0 | 0.0 | 0.00 | 0.00 | 0.00 | 81 | 1024.1 |
| 20260506112733 | 56 | 45 | 0.0 | 0.0 | 0.00 | 0.00 | 0.00 | 81 | 1024.2 |
| 20260506112333 | 56 | 45 | 0.0 | 0.0 | 0.00 | 0.00 | 0.00 | 81 | 1024.1 |
| 20260506111933 | 56 | 45 | 0.0 | 0.0 | 0.00 | 0.00 | 0.00 | 81 | 1024.1 |
| 20260506111532 | 56 | 45 | 0.0 | 0.0 | 0.00 | 0.00 | 0.00 | 81 | 1024.0 |
| 20260506111132 | 56 | 45 | 0.0 | 0.0 | 0.00 | 0.00 | 0.00 | 81 | 1024.1 |
| 20260506110732 | 56 | 45 | 0.0 | 0.0 | 0.00 | 0.00 | 0.00 | 81 | 1024.0 |
| 20260506110332 | 56 | 45 | 0.0 | 0.0 | 0.00 | 0.00 | 0.00 | 81 | 1023.9 |
| 20260506105932 | 56 | 0 | 0.0 | 0.0 | 0.00 | 0.00 | 0.00 | 81 | 1023.9 |
| 20260506105532 | 56 | 45 | 0.0 | 0.0 | 0.00 | 0.00 | 0.00 | 81 | 1023.9 |
| 20260506105132 | 56 | 45 | 0.0 | 0.0 | 0.00 | 0.00 | 0.00 | 81 | 1023.8 |
| 20260506104732 | 56 | 45 | 0.0 | 0.0 | 0.00 | 0.00 | 0.00 | 81 | 1023.8 |
| 20260506104332 | 56 | 54 | 0.0 | 0.0 | 0.00 | 0.00 | 0.00 | 80 | 1023.8 |
| 20260506103931 | 56 | 45 | 0.0 | 0.0 | 0.00 | 0.00 | 0.00 | 80 | 1023.7 |
| 20260506103531 | 56 | 45 | 0.0 | 0.0 | 0.00 | 0.00 | 0.00 | 80 | 1023.7 |
| 20260506103131 | 56 | 45 | 0.0 | 0.0 | 0.00 | 0.00 | 0.00 | 80 | 1023.7 |
| 20260506102731 | 56 | 87 | 0.0 | 0.0 | 0.00 | 0.00 | 0.00 | 80 | 1023.7 |
| 20260506102331 | 56 | 0 | 0.0 | 0.0 | 0.00 | 0.00 | 0.00 | 80 | 1023.7 |
| 20260506101931 | 56 | 45 | 0.0 | 0.0 | 0.00 | 0.00 | 0.00 | 80 | 1023.8 |
| 20260506101530 | 56 | 45 | 0.0 | 0.0 | 0.00 | 0.00 | 0.00 | 80 | 1023.8 |
| 20260506101130 | 56 | 45 | 0.0 | 0.0 | 0.00 | 0.00 | 0.00 | 81 | 1023.6 |
| 20260506100730 | 56 | 45 | 0.0 | 0.0 | 0.00 | 0.00 | 0.00 | 80 | 1023.5 |
| 20260506100331 | 56 | 45 | 0.0 | 0.0 | 0.00 | 0.00 | 0.00 | 81 | 1023.6 |
| 20260506095130 | 56 | 45 | 0.0 | 0.0 | 0.00 | 0.00 | 0.00 | 81 | 1023.4 |
| 20260506094729 | 57 | 0 | 0.0 | 0.0 | 0.00 | 0.00 | 0.00 | 81 | 1023.4 |
| 20260506094329 | 57 | 24 | 0.0 | 0.0 | 0.00 | 0.00 | 0.00 | 81 | 1023.3 |
| 20260506093929 | 57 | 324 | 0.0 | 0.0 | 0.00 | 0.00 | 0.00 | 81 | 1023.3 |
| 20260506093529 | 57 | 45 | 0.0 | 0.0 | 0.00 | 0.00 | 0.00 | 80 | 1023.2 |
| 20260506093129 | 57 | 0 | 0.0 | 0.0 | 0.00 | 0.00 | 0.00 | 80 | 1023.3 |
| 20260506092729 | 57 | 0 | 0.0 | 0.0 | 0.00 | 0.00 | 0.00 | 79 | 1023.2 |
| 20260506092329 | 57 | 315 | 0.0 | 0.0 | 0.00 | 0.00 | 0.00 | 79 | 1023.1 |
| 20260506091528 | 57 | 315 | 0.0 | 0.0 | 0.00 | 0.00 | 0.00 | 78 | 1023.2 |
| 20260506091128 | 57 | 315 | 0.0 | 0.0 | 0.00 | 0.00 | 0.00 | 79 | 1023.2 |
| 20260506090728 | 57 | 315 | 0.0 | 0.0 | 0.00 | 0.00 | 0.00 | 79 | 1023.3 |
| 20260506090328 | 57 | 315 | 0.0 | 0.0 | 0.00 | 0.00 | 0.00 | 79 | 1023.2 |
| 20260506085928 | 57 | 315 | 0.0 | 0.0 | 0.00 | 0.00 | 0.00 | 79 | 1023.3 |
| 20260506085528 | 57 | 315 | 0.0 | 0.0 | 0.00 | 0.00 | 0.00 | 79 | 1023.3 |
| 20260506085128 | 57 | 315 | 0.0 | 0.0 | 0.00 | 0.00 | 0.00 | 79 | 1023.3 |
| 20260506084727 | 57 | 315 | 0.0 | 0.0 | 0.00 | 0.00 | 0.00 | 79 | 1023.3 |
| 20260506084304 | 58 | 315 | 0.0 | 0.0 | 0.00 | 0.00 | 0.00 | 79 | 1023.4 |
| 20260506083927 | 58 | 315 | 0.0 | 0.0 | 0.00 | 0.00 | 0.00 | 79 | 1023.4 |
| 20260506083527 | 58 | 315 | 0.0 | 0.0 | 0.00 | 0.00 | 0.00 | 79 | 1023.5 |
| 20260506083127 | 58 | 315 | 0.0 | 0.0 | 0.00 | 0.00 | 0.00 | 79 | 1023.6 |
| 20260506082727 | 58 | 315 | 0.0 | 0.0 | 0.00 | 0.00 | 0.00 | 79 | 1023.6 |
| 20260506082326 | 58 | 315 | 0.0 | 0.0 | 0.00 | 0.00 | 0.00 | 79 | 1023.6 |
| 20260506081926 | 58 | 315 | 0.0 | 0.0 | 0.00 | 0.00 | 0.00 | 79 | 1023.7 |
| 20260506081526 | 58 | 315 | 0.0 | 0.0 | 0.00 | 0.00 | 0.00 | 79 | 1023.8 |
| 20260506081126 | 58 | 315 | 0.0 | 0.0 | 0.00 | 0.00 | 0.00 | 79 | 1023.8 |
| 20260506080726 | 58 | 315 | 0.0 | 0.0 | 0.00 | 0.00 | 0.00 | 80 | 1023.8 |
| 20260506080326 | 58 | 315 | 0.0 | 0.0 | 0.00 | 0.00 | 0.00 | 80 | 1023.7 |
| 20260506073525 | 58 | 315 | 0.0 | 0.0 | 0.00 | 0.00 | 0.00 | 80 | 1023.4 |
| 20260506073125 | 58 | 315 | 0.0 | 0.0 | 0.00 | 0.00 | 0.00 | 80 | 1023.4 |
| 20260506072725 | 58 | 0 | 0.0 | 0.0 | 0.00 | 0.00 | 0.00 | 80 | 1023.4 |
| 20260506072324 | 58 | 45 | 0.0 | 0.0 | 0.00 | 0.00 | 0.00 | 80 | 1023.2 |
| 20260506071924 | 58 | 270 | 0.0 | 0.0 | 0.00 | 0.00 | 0.00 | 80 | 1023.3 |
| 20260506071524 | 58 | 0 | 0.0 | 0.0 | 0.00 | 0.00 | 0.00 | 79 | 1023.3 |
| 20260506071124 | 58 | 333 | 0.0 | 0.0 | 0.00 | 0.00 | 0.00 | 80 | 1023.1 |
| 20260506070724 | 58 | 339 | 0.0 | 0.0 | 0.00 | 0.00 | 0.00 | 80 | 1023.1 |
| 20260506070324 | 59 | 324 | 0.0 | 0.0 | 0.00 | 0.00 | 0.00 | 80 | 1023.1 |
| 20260506061922 | 59 | 348 | 0.0 | 0.0 | 0.00 | 0.00 | 0.00 | 78 | 1022.6 |
| 20260506061522 | 59 | 315 | 0.0 | 0.0 | 0.00 | 0.00 | 0.00 | 78 | 1022.5 |
| 20260506061122 | 59 | 315 | 0.0 | 0.0 | 0.00 | 0.00 | 0.00 | 78 | 1022.5 |
| 20260506060722 | 60 | 315 | 0.0 | 0.0 | 0.00 | 0.00 | 0.00 | 78 | 1022.4 |
| 20260506060321 | 60 | 270 | 0.0 | 0.0 | 0.00 | 0.00 | 0.00 | 78 | 1022.3 |
| 20260506050717 | 61 | 270 | 0.0 | 0.0 | 0.00 | 0.00 | 0.00 | 75 | 1022.0 |
| 20260506045117 | 62 | 270 | 0.0 | 0.0 | 0.00 | 0.00 | 0.00 | 75 | 1021.8 |
| 20260506044717 | 62 | 238 | 0.0 | 0.0 | 0.00 | 0.00 | 0.00 | 75 | 1021.8 |
| 20260506044317 | 62 | 225 | 0.0 | 0.0 | 0.00 | 0.00 | 0.00 | 75 | 1021.8 |
| 20260506043916 | 62 | 256 | 0.0 | 2.0 | 0.00 | 0.00 | 0.00 | 75 | 1021.8 |
| 20260506043516 | 62 | 270 | 0.0 | 0.0 | 0.00 | 0.00 | 0.00 | 75 | 1021.6 |
| 20260506043116 | 62 | 315 | 0.0 | 1.0 | 0.00 | 0.00 | 0.00 | 75 | 1021.7 |
| 20260506042716 | 62 | 315 | 0.0 | 0.0 | 0.00 | 0.00 | 0.00 | 75 | 1021.4 |
| 20260506041916 | 63 | 270 | 0.0 | 0.0 | 0.00 | 0.00 | 0.00 | 75 | 1021.4 |
| 20260506041115 | 63 | 276 | 0.0 | 0.0 | 0.00 | 0.00 | 0.00 | 74 | 1021.2 |
| 20260506040715 | 63 | 294 | 0.0 | 0.0 | 0.00 | 0.00 | 0.00 | 74 | 1021.2 |
| 20260506040315 | 63 | 312 | 0.0 | 0.0 | 0.00 | 0.00 | 0.00 | 74 | 1021.2 |
| 20260506035915 | 63 | 315 | 0.0 | 0.0 | 0.00 | 0.00 | 0.00 | 74 | 1021.0 |
| 20260506035515 | 63 | 303 | 0.0 | 0.0 | 0.00 | 0.00 | 0.00 | 74 | 1021.2 |
| 20260506035114 | 63 | 270 | 0.0 | 0.0 | 0.00 | 0.00 | 0.00 | 74 | 1021.1 |
| 20260506034714 | 63 | 292 | 0.0 | 0.0 | 0.00 | 0.00 | 0.00 | 73 | 1021.0 |
| 20260506034313 | 63 | 236 | 0.0 | 0.0 | 0.00 | 0.00 | 0.00 | 73 | 1021.0 |
| 20260506033913 | 64 | 315 | 0.0 | 2.0 | 0.00 | 0.00 | 0.00 | 73 | 1021.0 |
| 20260506033514 | 64 | 346 | 1.0 | 1.0 | 0.00 | 0.00 | 0.00 | 73 | 1020.9 |
| 20260506032713 | 64 | 315 | 0.0 | 0.0 | 0.00 | 0.00 | 0.00 | 73 | 1020.8 |
| 20260506032313 | 64 | 315 | 0.0 | 0.0 | 0.00 | 0.00 | 0.00 | 73 | 1020.8 |
| 20260506031913 | 64 | 348 | 0.0 | 0.0 | 0.00 | 0.00 | 0.00 | 73 | 1020.7 |
| 20260506031112 | 64 | 315 | 0.0 | 0.0 | 0.00 | 0.00 | 0.00 | 72 | 1020.7 |
| 20260506030712 | 64 | 270 | 0.0 | 0.0 | 0.00 | 0.00 | 0.00 | 72 | 1020.6 |
| 20260506030312 | 64 | 306 | 0.0 | 0.0 | 0.00 | 0.00 | 0.00 | 72 | 1020.6 |
| 20260506025912 | 64 | 351 | 0.0 | 0.0 | 0.00 | 0.00 | 0.00 | 72 | 1020.6 |
| 20260506025512 | 64 | 292 | 0.0 | 0.0 | 0.00 | 0.00 | 0.00 | 72 | 1020.6 |
| 20260506025112 | 65 | 319 | 0.0 | 0.0 | 0.00 | 0.00 | 0.00 | 72 | 1020.6 |
| 20260506024711 | 65 | 315 | 0.0 | 0.0 | 0.00 | 0.00 | 0.00 | 72 | 1020.5 |
| 20260506024311 | 65 | 330 | 0.0 | 0.0 | 0.00 | 0.00 | 0.00 | 72 | 1020.5 |
| 20260506023911 | 65 | 262 | 0.0 | 0.0 | 0.00 | 0.00 | 0.00 | 72 | 1020.4 |
| 20260506023511 | 65 | 274 | 0.0 | 0.0 | 0.00 | 0.00 | 0.00 | 71 | 1020.3 |
| 20260506023111 | 65 | 208 | 0.0 | 0.0 | 0.00 | 0.00 | 0.00 | 71 | 1020.4 |
| 20260506022711 | 65 | 209 | 0.0 | 2.0 | 0.00 | 0.00 | 0.00 | 72 | 1020.3 |
| 20260506022311 | 65 | 301 | 0.0 | 0.0 | 0.00 | 0.00 | 0.00 | 72 | 1020.2 |
| 20260506021911 | 65 | 337 | 0.0 | 1.0 | 0.00 | 0.00 | 0.00 | 72 | 1020.3 |
| 20260506021510 | 65 | 292 | 0.0 | 2.0 | 0.00 | 0.00 | 0.00 | 72 | 1020.2 |
| 20260506021110 | 65 | 315 | 0.0 | 0.0 | 0.00 | 0.00 | 0.00 | 72 | 1020.2 |
| 20260506020711 | 65 | 315 | 0.0 | 0.0 | 0.00 | 0.00 | 0.00 | 71 | 1020.1 |
| 20260506020310 | 65 | 315 | 0.0 | 0.0 | 0.00 | 0.00 | 0.00 | 71 | 1020.1 |
| 20260506015510 | 65 | 192 | 0.0 | 0.0 | 0.00 | 0.00 | 0.00 | 71 | 1020.2 |
| 20260506015110 | 65 | 281 | 0.0 | 0.0 | 0.00 | 0.00 | 0.00 | 72 | 1020.1 |
| 20260506014709 | 66 | 249 | 0.0 | 0.0 | 0.00 | 0.00 | 0.00 | 72 | 1020.1 |
| 20260506014309 | 66 | 189 | 0.0 | 5.0 | 0.00 | 0.00 | 0.00 | 71 | 1020.1 |
| 20260506013909 | 66 | 308 | 0.0 | 0.0 | 0.00 | 0.00 | 0.00 | 71 | 1020.1 |
| 20260506013509 | 66 | 288 | 0.0 | 0.0 | 0.00 | 0.00 | 0.00 | 71 | 1020.2 |
| 20260506013109 | 66 | 315 | 0.0 | 0.0 | 0.00 | 0.00 | 0.00 | 71 | 1020.1 |
| 20260506012709 | 66 | 222 | 0.0 | 0.0 | 0.00 | 0.00 | 0.00 | 71 | 1020.1 |
| 20260506012308 | 66 | 315 | 0.0 | 0.0 | 0.00 | 0.00 | 0.00 | 71 | 1020.1 |
| 20260506011908 | 66 | 236 | 0.0 | 0.0 | 0.00 | 0.00 | 0.00 | 71 | 1020.1 |
| 20260506011108 | 66 | 315 | 0.0 | 1.0 | 0.00 | 0.00 | 0.00 | 71 | 1020.2 |
| 20260506010708 | 66 | 344 | 0.0 | 0.0 | 0.00 | 0.00 | 0.00 | 71 | 1020.2 |
| 20260506010308 | 66 | 270 | 0.0 | 3.0 | 0.00 | 0.00 | 0.00 | 71 | 1020.2 |
| 20260506005908 | 66 | 207 | 0.0 | 0.0 | 0.00 | 0.00 | 0.00 | 71 | 1020.2 |
| 20260506004705 | 66 | 200 | 0.0 | 1.0 | 0.00 | 0.00 | 0.00 | 71 | 1020.2 |
| 20260506004304 | 66 | 270 | 0.0 | 0.0 | 0.00 | 0.00 | 0.00 | 71 | 1020.3 |
| 20260506003904 | 66 | 229 | 0.0 | 0.0 | 0.00 | 0.00 | 0.00 | 71 | 1020.4 |
| 20260506003504 | 66 | 234 | 0.0 | 0.0 | 0.00 | 0.00 | 0.00 | 71 | 1020.2 |
| 20260506003105 | 66 | 216 | 0.0 | 0.0 | 0.00 | 0.00 | 0.00 | 71 | 1020.2 |
| 20260506002703 | 66 | 230 | 0.0 | 0.0 | 0.00 | 0.00 | 0.00 | 71 | 1020.1 |
| 20260506002305 | 66 | 207 | 0.0 | 3.0 | 0.00 | 0.00 | 0.00 | 72 | 1020.3 |
| 20260506001903 | 67 | 213 | 0.0 | 0.0 | 0.00 | 0.00 | 0.00 | 71 | 1020.2 |
| 20260506001503 | 67 | 198 | 0.0 | 0.0 | 0.00 | 0.00 | 0.00 | 71 | 1020.2 |
| 20260506001104 | 67 | 229 | 0.0 | 0.0 | 0.00 | 0.00 | 0.00 | 72 | 1020.1 |
| 20260506000703 | 67 | 225 | 0.0 | 4.0 | 0.00 | 0.00 | 0.00 | 72 | 1020.1 |
| 20260506000303 | 67 | 267 | 0.0 | 5.0 | 0.00 | 0.00 | 0.00 | 72 | 1020.1 |
| 20260505235903 | 67 | 204 | 0.0 | 1.0 | 0.00 | 0.00 | 0.00 | 72 | 1020.0 |
| 20260505235502 | 67 | 245 | 0.0 | 3.0 | 0.00 | 0.00 | 0.00 | 72 | 1020.0 |
| 20260505235102 | 66 | 321 | 0.0 | 5.0 | 0.00 | 0.00 | 0.00 | 73 | 1019.9 |
| 20260505234702 | 66 | 229 | 5.0 | 5.0 | 0.00 | 0.00 | 0.00 | 73 | 1019.9 |
| 20260505234302 | 66 | 211 | 0.0 | 9.0 | 0.00 | 0.00 | 0.00 | 72 | 1019.9 |
| 20260505233902 | 66 | 211 | 0.0 | 1.0 | 0.00 | 0.00 | 0.00 | 73 | 1020.0 |
| 20260505233502 | 66 | 344 | 0.0 | 1.0 | 0.00 | 0.00 | 0.00 | 73 | 1020.0 |
| 20260505233102 | 66 | 227 | 1.0 | 8.0 | 0.00 | 0.00 | 0.00 | 73 | 1019.9 |
| 20260505232701 | 66 | 234 | 4.0 | 6.0 | 0.00 | 0.00 | 0.00 | 74 | 1020.0 |
| 20260505232304 | 66 | 222 | 0.0 | 7.0 | 0.00 | 0.00 | 0.00 | 74 | 1020.0 |
| 20260505231901 | 66 | 326 | 0.0 | 4.0 | 0.00 | 0.00 | 0.00 | 74 | 1020.0 |
| 20260505231501 | 66 | 315 | 0.0 | 0.0 | 0.00 | 0.00 | 0.00 | 73 | 1020.0 |
| 20260505231101 | 66 | 240 | 0.0 | 0.0 | 0.00 | 0.00 | 0.00 | 74 | 1020.0 |
| 20260505230701 | 65 | 290 | 0.0 | 0.0 | 0.00 | 0.00 | 0.00 | 75 | 1020.0 |
| 20260505230300 | 65 | 236 | 0.0 | 10.0 | 0.00 | 0.00 | 0.00 | 75 | 1020.0 |
| 20260505225900 | 65 | 308 | 0.0 | 0.0 | 0.00 | 0.00 | 0.00 | 74 | 1020.0 |
| 20260505225500 | 65 | 281 | 0.0 | 0.0 | 0.00 | 0.00 | 0.00 | 75 | 1020.0 |
| 20260505225100 | 65 | 234 | 0.0 | 0.0 | 0.00 | 0.00 | 0.00 | 75 | 1020.0 |
| 20260505224700 | 65 | 263 | 0.0 | 10.0 | 0.00 | 0.00 | 0.00 | 75 | 1020.1 |
| 20260505224300 | 65 | 225 | 0.0 | 2.0 | 0.00 | 0.00 | 0.00 | 75 | 1020.0 |
| 20260505223900 | 65 | 225 | 1.0 | 5.0 | 0.00 | 0.00 | 0.00 | 75 | 1020.1 |
| 20260505223500 | 65 | 261 | 0.0 | 10.0 | 0.00 | 0.00 | 0.00 | 76 | 1020.0 |
| 20260505222700 | 64 | 319 | 0.0 | 3.0 | 0.00 | 0.00 | 0.00 | 77 | 1020.2 |
| 20260505222259 | 64 | 325 | 0.0 | 5.0 | 0.00 | 0.00 | 0.00 | 78 | 1020.2 |
| 20260505220659 | 63 | 245 | 0.0 | 5.0 | 0.00 | 0.00 | 0.00 | 77 | 1020.5 |
| 20260505215858 | 63 | 315 | 0.0 | 8.0 | 0.00 | 0.00 | 0.00 | 78 | 1020.4 |
| 20260505215058 | 63 | 225 | 0.0 | 6.0 | 0.00 | 0.00 | 0.00 | 78 | 1020.5 |
| 20260505214658 | 63 | 225 | 0.0 | 1.0 | 0.00 | 0.00 | 0.00 | 78 | 1020.4 |
| 20260505214258 | 63 | 312 | 0.0 | 9.0 | 0.00 | 0.00 | 0.00 | 78 | 1020.6 |
| 20260505213858 | 62 | 209 | 6.0 | 9.0 | 0.00 | 0.00 | 0.00 | 79 | 1020.5 |
| 20260505213459 | 62 | 225 | 0.0 | 0.0 | 0.00 | 0.00 | 0.00 | 79 | 1020.7 |
| 20260505213057 | 62 | 22 | 0.0 | 5.0 | 0.00 | 0.00 | 0.00 | 79 | 1020.7 |
| 20260505212657 | 62 | 225 | 0.0 | 5.0 | 0.00 | 0.00 | 0.00 | 79 | 1020.6 |
| 20260505212257 | 62 | 299 | 0.0 | 0.0 | 0.00 | 0.00 | 0.00 | 78 | 1020.6 |
| 20260505211857 | 62 | 315 | 0.0 | 1.0 | 0.00 | 0.00 | 0.00 | 79 | 1020.7 |
| 20260505211457 | 62 | 247 | 0.0 | 0.0 | 0.00 | 0.00 | 0.00 | 79 | 1020.6 |
| 20260505210656 | 62 | 216 | 0.0 | 0.0 | 0.00 | 0.00 | 0.00 | 79 | 1020.6 |
| 20260505210256 | 62 | 243 | 0.0 | 1.0 | 0.00 | 0.00 | 0.00 | 79 | 1020.5 |
| 20260505205856 | 62 | 204 | 0.0 | 0.0 | 0.00 | 0.00 | 0.00 | 79 | 1020.5 |
| 20260505205456 | 62 | 198 | 0.0 | 5.0 | 0.00 | 0.00 | 0.00 | 79 | 1020.6 |
| 20260505205056 | 62 | 0 | 0.0 | 7.0 | 0.00 | 0.00 | 0.00 | 79 | 1020.6 |
| 20260505204657 | 62 | 195 | 0.0 | 7.0 | 0.00 | 0.00 | 0.00 | 79 | 1020.6 |
| 20260505204256 | 62 | 204 | 5.0 | 9.0 | 0.00 | 0.00 | 0.00 | 79 | 1020.7 |
| 20260505203855 | 62 | 238 | 0.0 | 7.0 | 0.00 | 0.00 | 0.00 | 79 | 1020.7 |
| 20260505203455 | 62 | 277 | 0.0 | 0.0 | 0.00 | 0.00 | 0.00 | 80 | 1020.7 |
| 20260505203055 | 62 | 225 | 0.0 | 7.0 | 0.00 | 0.00 | 0.00 | 80 | 1020.7 |
| 20260505202655 | 62 | 222 | 3.0 | 4.0 | 0.00 | 0.00 | 0.00 | 80 | 1020.7 |
| 20260505202255 | 62 | 225 | 4.0 | 5.0 | 0.00 | 0.00 | 0.00 | 80 | 1020.8 |
| 20260505201855 | 61 | 270 | 1.0 | 1.0 | 0.00 | 0.00 | 0.00 | 80 | 1020.7 |
| 20260505201455 | 61 | 227 | 0.0 | 5.0 | 0.00 | 0.00 | 0.00 | 80 | 1020.9 |
| 20260505201054 | 61 | 310 | 3.0 | 3.0 | 0.00 | 0.00 | 0.00 | 80 | 1020.8 |
| 20260505200654 | 61 | 18 | 0.0 | 0.0 | 0.00 | 0.00 | 0.00 | 81 | 1020.7 |
| 20260505200254 | 61 | 310 | 0.0 | 5.0 | 0.00 | 0.00 | 0.00 | 81 | 1020.8 |
| 20260505195854 | 61 | 270 | 0.0 | 8.0 | 0.00 | 0.00 | 0.00 | 81 | 1020.9 |
| 20260505195054 | 61 | 213 | 0.0 | 0.0 | 0.00 | 0.00 | 0.00 | 81 | 1020.9 |
| 20260505194654 | 60 | 315 | 0.0 | 0.0 | 0.00 | 0.00 | 0.00 | 81 | 1020.9 |
| 20260505193453 | 60 | 225 | 0.0 | 2.0 | 0.00 | 0.00 | 0.00 | 81 | 1020.9 |
| 20260505193053 | 60 | 225 | 0.0 | 0.0 | 0.00 | 0.00 | 0.00 | 82 | 1021.0 |
| 20260505192653 | 60 | 252 | 2.0 | 5.0 | 0.00 | 0.00 | 0.00 | 82 | 1021.0 |
| 20260505192254 | 60 | 220 | 0.0 | 0.0 | 0.00 | 0.00 | 0.00 | 82 | 1021.0 |
| 20260505191853 | 60 | 357 | 6.0 | 8.0 | 0.00 | 0.00 | 0.00 | 82 | 1020.9 |
| 20260505191453 | 60 | 315 | 0.0 | 0.0 | 0.00 | 0.00 | 0.00 | 83 | 1020.9 |
| 20260505191052 | 60 | 0 | 0.0 | 0.0 | 0.00 | 0.00 | 0.00 | 83 | 1021.0 |
| 20260505190653 | 60 | 315 | 0.0 | 2.0 | 0.00 | 0.00 | 0.00 | 83 | 1020.8 |
| 20260505190252 | 59 | 333 | 0.0 | 0.0 | 0.00 | 0.00 | 0.00 | 83 | 1020.9 |
| 20260505185852 | 59 | 270 | 0.0 | 0.0 | 0.00 | 0.00 | 0.00 | 83 | 1021.0 |
| 20260505185052 | 59 | 0 | 0.0 | 0.0 | 0.00 | 0.00 | 0.00 | 83 | 1020.8 |
| 20260505184651 | 59 | 288 | 0.0 | 3.0 | 0.00 | 0.00 | 0.00 | 83 | 1020.9 |
| 20260505184251 | 59 | 230 | 0.0 | 4.0 | 0.00 | 0.00 | 0.00 | 83 | 1020.8 |
| 20260505183851 | 59 | 342 | 0.0 | 1.0 | 0.00 | 0.00 | 0.03 | 82 | 1020.8 |
| 20260505183051 | 59 | 335 | 0.0 | 4.0 | 0.00 | 0.00 | 0.03 | 83 | 1020.8 |
| 20260505182251 | 59 | 288 | 0.0 | 0.0 | 0.00 | 0.00 | 0.03 | 83 | 1020.8 |
| 20260505181850 | 59 | 315 | 0.0 | 7.0 | 0.00 | 0.00 | 0.03 | 83 | 1020.7 |
| 20260505181450 | 59 | 225 | 0.0 | 0.0 | 0.00 | 0.00 | 0.03 | 83 | 1020.8 |
| 20260505181050 | 59 | 263 | 2.0 | 4.0 | 0.00 | 0.00 | 0.03 | 83 | 1020.6 |
| 20260505180650 | 59 | 315 | 0.0 | 4.0 | 0.00 | 0.00 | 0.03 | 83 | 1020.5 |
| 20260505180250 | 59 | 279 | 0.0 | 4.0 | 0.00 | 0.00 | 0.03 | 83 | 1020.6 |
| 20260505175850 | 59 | 321 | 2.0 | 7.0 | 0.00 | 0.00 | 0.03 | 83 | 1020.5 |
| 20260505175450 | 59 | 287 | 2.0 | 6.0 | 0.00 | 0.00 | 0.03 | 83 | 1020.6 |
| 20260505175049 | 58 | 211 | 5.0 | 6.0 | 0.00 | 0.00 | 0.03 | 83 | 1020.6 |
| 20260505174649 | 58 | 192 | 0.0 | 7.0 | 0.00 | 0.00 | 0.03 | 83 | 1020.5 |
| 20260505173849 | 58 | 301 | 0.0 | 5.0 | 0.00 | 0.00 | 0.03 | 84 | 1020.4 |
| 20260505173449 | 58 | 218 | 0.0 | 7.0 | 0.00 | 0.00 | 0.03 | 84 | 1020.4 |
| 20260505173049 | 58 | 270 | 0.0 | 4.0 | 0.00 | 0.00 | 0.03 | 84 | 1020.3 |
| 20260505172650 | 58 | 238 | 4.0 | 5.0 | 0.00 | 0.00 | 0.03 | 84 | 1020.3 |
| 20260505172248 | 58 | 288 | 0.0 | 8.0 | 0.00 | 0.00 | 0.03 | 84 | 1020.3 |
| 20260505171849 | 58 | 211 | 4.0 | 6.0 | 0.00 | 0.00 | 0.03 | 84 | 1020.1 |
| 20260505171048 | 57 | 213 | 0.0 | 4.0 | 0.00 | 0.00 | 0.03 | 85 | 1020.2 |
| 20260505170648 | 57 | 252 | 3.0 | 4.0 | 0.00 | 0.00 | 0.03 | 84 | 1020.3 |
| 20260505170248 | 57 | 315 | 1.0 | 2.0 | 0.00 | 0.00 | 0.03 | 85 | 1020.4 |
| 20260505170131 | 57 | 263 | 0.0 | 5.0 | 0.00 | 0.00 | 0.03 | 85 | 1020.4 |
| 20260505165848 | 57 | 263 | 0.0 | 5.0 | 0.00 | 0.00 | 0.03 | 85 | 1020.4 |
| 20260505165448 | 57 | 218 | 0.0 | 6.0 | 0.00 | 0.00 | 0.03 | 85 | 1020.3 |
| 20260505165047 | 57 | 238 | 4.0 | 6.0 | 0.00 | 0.00 | 0.03 | 85 | 1020.4 |
| 20260505164647 | 57 | 222 | 3.0 | 3.0 | 0.00 | 0.00 | 0.03 | 85 | 1020.4 |
| 20260505164247 | 57 | 225 | 0.0 | 6.0 | 0.00 | 0.00 | 0.03 | 85 | 1020.3 |
| 20260505163847 | 57 | 235 | 3.0 | 5.0 | 0.00 | 0.00 | 0.03 | 85 | 1020.3 |
| 20260505163047 | 57 | 257 | 0.0 | 4.0 | 0.00 | 0.00 | 0.03 | 86 | 1020.2 |
| 20260505162646 | 56 | 270 | 0.0 | 6.0 | 0.00 | 0.00 | 0.03 | 85 | 1020.2 |
| 20260505162246 | 56 | 227 | 4.0 | 4.0 | 0.00 | 0.00 | 0.03 | 86 | 1020.4 |
| 20260505161847 | 56 | 234 | 0.0 | 0.0 | 0.00 | 0.00 | 0.03 | 86 | 1020.2 |
| 20260505161446 | 56 | 225 | 0.0 | 1.0 | 0.00 | 0.00 | 0.03 | 86 | 1020.3 |
| 20260505161046 | 56 | 180 | 0.0 | 6.0 | 0.00 | 0.00 | 0.03 | 86 | 1020.2 |
| 20260505160646 | 56 | 227 | 4.0 | 7.0 | 0.00 | 0.00 | 0.03 | 86 | 1020.1 |
| 20260505160246 | 56 | 270 | 0.0 | 3.0 | 0.00 | 0.00 | 0.03 | 86 | 1020.2 |
| 20260505153045 | 56 | 207 | 0.0 | 0.0 | 0.00 | 0.00 | 0.03 | 86 | 1020.1 |
| 20260505152644 | 56 | 204 | 0.0 | 6.0 | 0.00 | 0.00 | 0.03 | 86 | 1020.1 |
| 20260505152244 | 56 | 207 | 0.0 | 0.0 | 0.00 | 0.00 | 0.03 | 87 | 1020.1 |
| 20260505151844 | 56 | 270 | 0.0 | 0.0 | 0.00 | 0.00 | 0.03 | 87 | 1020.0 |
| 20260505151444 | 56 | 270 | 0.0 | 0.0 | 0.00 | 0.00 | 0.03 | 86 | 1020.0 |
| 20260505151044 | 56 | 243 | 0.0 | 1.0 | 0.00 | 0.00 | 0.03 | 87 | 1019.9 |
| 20260505150644 | 56 | 225 | 0.0 | 1.0 | 0.00 | 0.00 | 0.03 | 86 | 1019.9 |
| 20260505150244 | 56 | 299 | 0.0 | 0.0 | 0.00 | 0.00 | 0.03 | 86 | 1019.9 |
| 20260505140642 | 55 | 315 | 0.0 | 0.0 | 0.00 | 0.00 | 0.03 | 87 | 1019.6 |
| 20260505140241 | 55 | 315 | 0.0 | 0.0 | 0.00 | 0.00 | 0.03 | 87 | 1019.6 |